This is the latest recevied weather packets stored in our database for station/object EB2GLU-13. If no packets are shown the sender has not sent any weather packets the latest 10 day(s).
| Time | Temp. | Humidity | Pressure | Rain* | Wind** | Luminosity | Snow |
|---|---|---|---|---|---|---|---|
| 1777885518 | 13.33° C | 91% | 1013.2 hPa | 1.78 mm | - | - | - |
| 1777884768 | 13.33° C | 89% | 1013.3 hPa | 0.25 mm | - | - | - |
| 1777884018 | 13.33° C | 89% | 1013.3 hPa | 0.25 mm | - | - | - |
| 1777883268 | 13.33° C | 88% | 1012.9 hPa | 0.51 mm | - | - | - |
| 1777882508 | 13.89° C | 89% | 1013 hPa | 3.56 mm | - | - | - |
| 1777881758 | 13.33° C | 90% | 1012.8 hPa | 3.56 mm | - | - | - |
| 1777881008 | 14.44° C | 92% | 1012.7 hPa | 3.05 mm | - | - | - |
| 1777880258 | 14.44° C | 93% | 1012.5 hPa | 3.05 mm | - | - | - |
| 1777879508 | 15° C | 92% | 1012.6 hPa | 2.79 mm | - | - | - |
| 1777878758 | 15° C | 90% | 1012.6 hPa | 0 mm | - | - | - |
| 1777878008 | 15° C | 89% | 1012.4 hPa | 0 mm | - | - | - |
| 1777877258 | 14.44° C | 90% | 1012.6 hPa | 0 mm | - | - | - |
| 1777876508 | 14.44° C | 91% | 1012.2 hPa | 0 mm | - | - | - |
| 1777875758 | 14.44° C | 91% | 1012.2 hPa | 0 mm | - | - | - |
| 1777875008 | 14.44° C | 93% | 1012.3 hPa | 0 mm | - | - | - |
| 1777874258 | 13.89° C | 93% | 1011.9 hPa | 0 mm | - | - | - |
| 1777873508 | 13.89° C | 93% | 1011.9 hPa | 0 mm | - | - | - |
| 1777872758 | 14.44° C | 93% | 1012.1 hPa | 0 mm | - | - | - |
| 1777871998 | 13.89° C | 93% | 1011.8 hPa | 0 mm | - | - | - |
| 1777871248 | 13.89° C | 93% | 1011.6 hPa | 0 mm | - | - | - |
| 1777870498 | 14.44° C | 93% | 1011.9 hPa | 0 mm | - | - | - |
| 1777869748 | 13.89° C | 93% | 1011.9 hPa | 0 mm | - | - | - |
| 1777868998 | 13.33° C | 93% | 1011.7 hPa | 0 mm | - | - | - |
| 1777866748 | 13.89° C | 93% | 1012.4 hPa | 0 mm | - | - | - |
| 1777865997 | 13.89° C | 93% | 1012.3 hPa | 0 mm | - | - | - |
* Rain latest hour (hover to see other rain measurements)
** Current wind speed in m/s (hover to see current wind gust speed)